Overview Statistics Trail Chart Weather Telemetry Raw packets
 

This is the latest recevied weather packets stored in our database for station/object KV9E. If no packets are shown the sender has not sent any weather packets the latest 10 day(s).

<< 1 2 3 4 >>
Time Temp. Humidity Pressure Rain* Wind** Luminosity Snow
1788628701 31.67° C 62% 1014.7 hPa 0 mm - 544 W/m² -
1788628398 31.11° C 63% 1014.9 hPa 0 mm - 543 W/m² -
1788628094 30.56° C 64% 1015 hPa 0 mm - 532 W/m² -
1788627803 30.56° C 68% 1014.9 hPa 0 mm - 524 W/m² -
1788627487 30.56° C 70% 1015 hPa 0 mm - 524 W/m² -
1788627178 30.56° C 70% 1015.2 hPa 0 mm - 516 W/m² -
1788626878 30° C 69% 1015 hPa 0 mm - 511 W/m² -
1788626578 30° C 70% 1015 hPa 0 mm - 153 W/m² -
1788626268 30° C 69% 1015.1 hPa 0 mm - 152 W/m² -
1788625973 29.44° C 71% 1015.4 hPa 0 mm - 233 W/m² -
1788625660 29.44° C 70% 1015.4 hPa 0 mm - 104 W/m² -
1788625360 29.44° C 73% 1015.6 hPa 0 mm - 150 W/m² -
1788625054 28.89° C 73% 1015.4 hPa 0 mm - 100 W/m² -
1788624753 28.89° C 74% 1015.4 hPa 0 mm - 201 W/m² -
1788624452 28.33° C 74% 1015.6 hPa 0 mm - 127 W/m² -
1788624152 28.33° C 75% 1015.6 hPa 0 mm - 118 W/m² -
1788623847 28.33° C 75% 1015.7 hPa 0 mm - 131 W/m² -
1788623545 27.78° C 76% 1015.7 hPa 0 mm - 190 W/m² -
1788623240 27.78° C 76% 1015.5 hPa 0 mm - 94 W/m² -
1788622935 27.78° C 78% 1015.7 hPa 0 mm - 106 W/m² -
1788622631 27.78° C 77% 1015.7 hPa 0 mm - 146 W/m² -
1788622327 27.78° C 78% 1015.7 hPa 0 mm - 102 W/m² -
1788622021 27.22° C 80% 1015.7 hPa 0 mm - 97 W/m² -
1788621715 26.67° C 80% 1015.5 hPa 0 mm - 82 W/m² -
1788621410 26.67° C 79% 1015.7 hPa 0 mm - 88 W/m² -

* Rain latest hour (hover to see other rain measurements)
** Current wind speed in m/s (hover to see current wind gust speed)